Regional Weather Roundup
Issued by NWS Goodland, KS

Home | Current Version | Previous Version | Text Only | Print | Product List | Glossary On
Versions: 1 2 3 4 5 6 7 8 9 10 11 12 13 14 15 16 17 18 19 20 21 22 23 24 25 26 27 28 29 30 31 32 33 34 35 36 37 38 39 40 41 42 43 44 45 46 47 48 49 50
000
ASUS43 KGLD 241308
RWRGLD

GOODLAND FORECAST AREA HOURLY WEATHER ROUNDUP
NATIONAL WEATHER SERVICE GOODLAND KS
700 AM MDT SUN SEP 24 2017

...OFFICIAL OBSERVATIONS...

CITY           SKY/WX    TMP DP  RH WIND       PRES   REMARKS
GOODLAND KS    LGT RAIN  50  50 100 N3        29.92R
HILL CITY KS   LGT RAIN  65  63  93 SW6       29.89R
IMPERIAL NEB   CLOUDY    49  48  97 NW14      29.93S
MCCOOK NEB     RAIN      53  52  96 W10       29.92R
AKRON CO       CLOUDY    44  42  93 N12       29.97S
BURLINGTON CO  CLOUDY    49  48  97 NW14      29.96R FOG
LIMON CO         N/A    N/A N/A N/A MISG      29.97S
$$

...UNOFFICIAL OBSERVATIONS...

CITY           SKY/WX    TMP DP  RH WIND       PRES   REMARKS
LENORA KS        N/A     64  32  30 MISG        N/A
NORTON KS      PTCLDY    63  57  82 S7        29.87S
SHARON SPRINGS   N/A     52  51  95 CALM        N/A
KIT CARSON CO    N/A     50  47  90 MISG        N/A
YUMA CO        CLOUDY    45  43  93 NW9       29.96R
$$




USA.gov is the U.S. government's official web portal to all federal, state and local government web resources and services.